Location: Middelsbur
(53.6609°N, 7.5020°E)
Time: 23:29:39
(UTC+00:00)

EO 1 Del DPAF - Pass Details

Date: 06 July 2020
Orbit: 512 x 518 km, 98.0° (Epoch: 03 August)

Event Time Altitude Azimuth Distance (km) Brightness Sun altitude
Rises 22:21:18 0° 17° (NNE) 2,647 7.8 -12.1°
Reaches altitude 10° 22:23:26 10° 21° (NNE) 1,754 6.7 -12.2°
Maximum altitude 22:27:10 61° 103° (ESE) 589 3.3 -12.4°
Enters shadow 22:29:40 20° 179° (S) 1,252 4.5 -12.5°
